Simultaneous Nadir Overpasses (SNOs) Predictions

Prediction of SNOs between LANDSAT-8 and METOP-A Satellite Orbit:

Table of predicted SNOs for the next 14.0 days since TLE Epoch: 12/11/2016
Index Date (LANDSAT-8) Time (LANDSAT-8) Lat,Lon (LANDSAT-8) SZA (LANDSAT-8 ) Date (METOP-A) Time (METOP-A) Lat,Lon (METOP-A) SZA (METOP-A ) Distance(km) Time Diff (sec)
1 12/11/2016 11:14:11 -81.15,-128.36 73.71 12/11/2016 11:14:07 -81.14,-128.30 73.70 1.02 4
2 12/11/2016 12:03:37 81.15, 39.39 106.32 12/11/2016 12:04:46 81.16, 39.53 106.37 2.45 69
3 12/14/2016 05:59:00 81.11, 129.92 106.37 12/14/2016 05:57:52 81.11, 129.77 106.33 2.60 68
4 12/14/2016 06:48:26 -81.13, -62.14 73.59 12/14/2016 06:48:31 -81.14, -62.02 73.56 2.31 5
5 12/17/2016 01:33:14 81.12,-163.57 106.48 12/17/2016 01:32:15 81.12,-163.61 106.45 0.74 59
6 12/17/2016 02:22:40 -81.14, 4.40 73.48 12/17/2016 02:22:55 -81.13, 4.25 73.49 2.63 15
7 12/19/2016 21:07:27 81.12, -97.10 106.51 12/19/2016 21:06:37 81.12, -97.01 106.51 1.56 50
8 12/19/2016 21:56:53 -81.14, 70.90 73.44 12/19/2016 21:57:17 -81.14, 70.86 73.43 0.59 24
9 12/22/2016 16:41:41 81.12, -30.67 106.48 12/22/2016 16:41:01 81.12, -30.81 106.45 2.45 40




NCC Satellite Simultaneous Nadir Overpasses (SNOs) Prediction Service
